When you browse on this site, cookies collect data to enhance your experience and personalize the content and advertising you see.
Visit our Privacy Policy to learn more. By continuing to use the site, you agree to this use of cookies and data.
  • In Portugal
  • List of Countries
  • For 7 days
  • Water Temperature
  • Weather Map
  • Weather Widgets
  • user-avatar
    Login

    Hourly Weather Mansa Konko

    Today, 26 February, Wednesday

    Time Temperature Precipitation Wind Pressure Humidity
    00:00 +30°C° 0 mm 4 mps 756 mmHg 10%
    01:00 +30°C° 0 mm 3 mps 756 mmHg 10%
    02:00 +30°C° 0 mm 3 mps 756 mmHg 11%
    03:00 +29°C° 0 mm 3 mps 756 mmHg 11%
    04:00 +28°C° 0 mm 3 mps 756 mmHg 12%
    05:00 +28°C° 0 mm 3 mps 756 mmHg 12%
    06:00 +29°C° 0 mm 4 mps 756 mmHg 11%
    07:00 +32°C° 0 mm 5 mps 757 mmHg 10%
    08:00 +33°C° 0 mm 6 mps 757 mmHg 10%
    09:00 +36°C° 0 mm 7 mps 757 mmHg 8%
    10:00 +40°C° 0 mm 7 mps 757 mmHg 7%
    11:00 +44°C° 0 mm 7 mps 756 mmHg 6%
    12:00 +45°C° 0 mm 6 mps 756 mmHg 6%
    13:00 +46°C° 0 mm 6 mps 755 mmHg 5%
    14:00 +47°C° 0 mm 5 mps 754 mmHg 5%
    15:00 +47°C° 0 mm 5 mps 754 mmHg 6%
    16:00 +46°C° 0 mm 5 mps 753 mmHg 6%
    17:00 +46°C° 0 mm 5 mps 753 mmHg 6%
    18:00 +42°C° 0 mm 4 mps 754 mmHg 8%
    19:00 +38°C° 0 mm 3 mps 755 mmHg 10%
    20:00 +35°C° 0 mm 3 mps 756 mmHg 12%
    21:00 +32°C° 0 mm 2 mps 756 mmHg 17%
    22:00 +30°C° 0 mm 2 mps 756 mmHg 22%
    23:00 +28°C° 0 mm 2 mps 757 mmHg 28%

    Tomorrow, 27 February, Thursday

    Time Temperature Precipitation Wind Pressure Humidity
    00:00 +27°C° 0 mm 2 mps 756 mmHg 30%
    01:00 +27°C° 0 mm 1 mps 756 mmHg 32%
    02:00 +26°C° 0 mm 1 mps 756 mmHg 34%
    03:00 +25°C° 0 mm 1 mps 756 mmHg 32%
    04:00 +23°C° 0 mm 0 mps 756 mmHg 31%
    05:00 +23°C° 0 mm 0 mps 756 mmHg 29%
    06:00 +27°C° 0 mm 1 mps 757 mmHg 25%
    07:00 +28°C° 0 mm 1 mps 757 mmHg 20%
    08:00 +30°C° 0 mm 2 mps 758 mmHg 15%
    09:00 +34°C° 0 mm 3 mps 758 mmHg 12%
    10:00 +37°C° 0 mm 3 mps 758 mmHg 10%
    11:00 +42°C° 0 mm 4 mps 757 mmHg 7%
    12:00 +43°C° 0 mm 4 mps 757 mmHg 7%
    13:00 +44°C° 0 mm 3 mps 756 mmHg 7%
    14:00 +45°C° 0 mm 3 mps 755 mmHg 7%
    15:00 +45°C° 0 mm 3 mps 755 mmHg 7%
    16:00 +44°C° 0 mm 4 mps 754 mmHg 7%
    17:00 +44°C° 0 mm 4 mps 754 mmHg 6%
    18:00 +40°C° 0 mm 3 mps 755 mmHg 8%
    19:00 +37°C° 0 mm 3 mps 755 mmHg 10%
    20:00 +34°C° 0 mm 2 mps 756 mmHg 11%
    21:00 +30°C° 0 mm 2 mps 756 mmHg 17%
    22:00 +28°C° 0 mm 2 mps 757 mmHg 24%
    23:00 +26°C° 0 mm 2 mps 757 mmHg 30%

    Day after tomorrow, 28 February, Friday

    Time Temperature Precipitation Wind Pressure Humidity
    00:00 +25°C° 0 mm 2 mps 757 mmHg 31%
    01:00 +24°C° 0 mm 1 mps 757 mmHg 32%
    02:00 +24°C° 0 mm 1 mps 756 mmHg 33%
    03:00 +23°C° 0 mm 1 mps 757 mmHg 30%
    04:00 +23°C° 0 mm 1 mps 757 mmHg 27%
    05:00 +23°C° 0 mm 1 mps 757 mmHg 24%
    06:00 +25°C° 0 mm 1 mps 757 mmHg 20%
    07:00 +27°C° 0 mm 1 mps 758 mmHg 16%
    08:00 +28°C° 0 mm 1 mps 759 mmHg 12%
    09:00 +32°C° 0 mm 2 mps 758 mmHg 10%
    10:00 +36°C° 0 mm 2 mps 758 mmHg 8%
    11:00 +40°C° 0 mm 2 mps 758 mmHg 5%
    12:00 +41°C° 0 mm 2 mps 757 mmHg 5%
    13:00 +43°C° 0 mm 1 mps 756 mmHg 4%
    14:00 +45°C° 0 mm 1 mps 755 mmHg 4%
    15:00 +44°C° 0 mm 1 mps 755 mmHg 4%
    16:00 +43°C° 0 mm 2 mps 755 mmHg 4%
    17:00 +42°C° 0 mm 2 mps 755 mmHg 4%
    18:00 +38°C° 0 mm 3 mps 755 mmHg 8%
    19:00 +34°C° 0 mm 3 mps 756 mmHg 12%
    20:00 +29°C° 0 mm 4 mps 757 mmHg 16%
    21:00 +28°C° 0 mm 4 mps 757 mmHg 19%
    22:00 +27°C° 0 mm 3 mps 758 mmHg 21%
    23:00 +25°C° 0 mm 3 mps 758 mmHg 23%

    29 February, Saturday

    Time Temperature Precipitation Wind Pressure Humidity
    00:00 +25°C° 0 mm 3 mps 758 mmHg 24%
    01:00 +24°C° 0 mm 3 mps 757 mmHg 25%
    02:00 +22°C° 0 mm 3 mps 757 mmHg 26%
    03:00 +22°C° 0 mm 3 mps 757 mmHg 25%
    04:00 +21°C° 0 mm 3 mps 757 mmHg 24%
    05:00 +21°C° 0 mm 3 mps 757 mmHg 23%
    06:00 +24°C° 0 mm 3 mps 757 mmHg 19%
    07:00 +26°C° 0 mm 4 mps 758 mmHg 15%
    08:00 +27°C° 0 mm 5 mps 758 mmHg 11%
    09:00 +32°C° 0 mm 5 mps 758 mmHg 9%
    10:00 +36°C° 0 mm 4 mps 758 mmHg 6%
    11:00 +40°C° 0 mm 4 mps 758 mmHg 4%
    12:00 +42°C° 0 mm 4 mps 757 mmHg 4%
    13:00 +43°C° 0 mm 4 mps 756 mmHg 4%
    14:00 +45°C° 0 mm 4 mps 755 mmHg 4%
    15:00 +45°C° 0 mm 3 mps 754 mmHg 4%
    16:00 +43°C° 0 mm 2 mps 754 mmHg 4%
    17:00 +43°C° 0 mm 2 mps 754 mmHg 5%
    18:00 +40°C° 0 mm 2 mps 754 mmHg 6%
    19:00 +35°C° 0 mm 1 mps 755 mmHg 8%
    20:00 +32°C° 0 mm 1 mps 756 mmHg 9%
    21:00 +30°C° 0 mm 2 mps 756 mmHg 12%
    22:00 +29°C° 0 mm 2 mps 756 mmHg 15%
    23:00 +27°C° 0 mm 3 mps 756 mmHg 18%

    1 March, Sunday

    Time Temperature Precipitation Wind Pressure Humidity
    00:00 +26°C° 0 mm 3 mps 756 mmHg 22%
    01:00 +25°C° 0 mm 3 mps 756 mmHg 26%
    02:00 +24°C° 0 mm 3 mps 756 mmHg 30%
    03:00 +22°C° 0 mm 3 mps 756 mmHg 30%
    04:00 +22°C° 0 mm 3 mps 756 mmHg 30%
    05:00 +21°C° 0 mm 3 mps 756 mmHg 31%
    06:00 +24°C° 0 mm 3 mps 756 mmHg 27%
    07:00 +25°C° 0 mm 3 mps 757 mmHg 24%
    08:00 +27°C° 0 mm 4 mps 757 mmHg 20%
    09:00 +32°C° 0 mm 4 mps 757 mmHg 15%
    10:00 +36°C° 0 mm 4 mps 757 mmHg 10%
    11:00 +41°C° 0 mm 5 mps 756 mmHg 4%
    12:00 +43°C° 0 mm 4 mps 755 mmHg 4%
    13:00 +44°C° 0 mm 4 mps 754 mmHg 4%
    14:00 +46°C° 0 mm 3 mps 753 mmHg 4%
    15:00 +45°C° 0 mm 3 mps 753 mmHg 4%
    16:00 +45°C° 0 mm 2 mps 753 mmHg 4%
    17:00 +44°C° 0 mm 1 mps 753 mmHg 5%
    18:00 +40°C° 0 mm 1 mps 754 mmHg 8%
    19:00 +36°C° 0 mm 2 mps 754 mmHg 11%
    20:00 +32°C° 0 mm 2 mps 755 mmHg 14%
    21:00 +30°C° 0 mm 2 mps 755 mmHg 19%
    22:00 +28°C° 0 mm 2 mps 756 mmHg 24%
    23:00 +26°C° 0 mm 2 mps 756 mmHg 29%

    2 March, Monday

    Time Temperature Precipitation Wind Pressure Humidity
    00:00 +26°C° 0 mm 2 mps 756 mmHg 30%
    01:00 +25°C° 0 mm 2 mps 756 mmHg 31%
    02:00 +25°C° 0 mm 2 mps 756 mmHg 32%
    03:00 +24°C° 0 mm 2 mps 756 mmHg 32%
    04:00 +23°C° 0 mm 1 mps 756 mmHg 33%
    05:00 +23°C° 0 mm 1 mps 756 mmHg 34%
    06:00 +24°C° 0 mm 1 mps 756 mmHg 29%
    07:00 +26°C° 0 mm 1 mps 757 mmHg 24%
    08:00 +28°C° 0 mm 1 mps 757 mmHg 19%
    09:00 +32°C° 0 mm 2 mps 757 mmHg 15%
    10:00 +37°C° 0 mm 3 mps 757 mmHg 11%
    11:00 +41°C° 0 mm 4 mps 757 mmHg 7%
    12:00 +43°C° 0 mm 4 mps 756 mmHg 6%
    13:00 +44°C° 0 mm 4 mps 755 mmHg 6%
    14:00 +47°C° 0 mm 4 mps 754 mmHg 6%
    15:00 +47°C° 0 mm 4 mps 754 mmHg 6%
    16:00 +45°C° 0 mm 4 mps 754 mmHg 6%
    17:00 +45°C° 0 mm 3 mps 754 mmHg 6%
    18:00 +40°C° 0 mm 3 mps 754 mmHg 11%
    19:00 +36°C° 0 mm 3 mps 755 mmHg 16%
    20:00 +33°C° 0 mm 3 mps 755 mmHg 20%
    21:00 +29°C° 0 mm 3 mps 756 mmHg 30%
    22:00 +27°C° 0 mm 2 mps 756 mmHg 40%
    23:00 +25°C° 0 mm 2 mps 757 mmHg 50%
    Show more